Cuzco, Peru

11:41 PM -05 on April 22, 2018 (GMT -0500)
Alejandro Velazco Astete

Weather History for SPZO - October, 2012

Change the Weather History Date:

Monday, October 8, 2012

  Actual Average Record
Temperature  
Mean Temperature 55 °F -  
Max Temperature 62 °F 70 °F 77 °F (2003)
Min Temperature 48 °F 42 °F 39 °F (1996)
Degree Days  
Heating Degree Days 10    
Growing Degree Days 5 (Base 50)    
Moisture  
Dew Point 42 °F    
Average Humidity 62    
Maximum Humidity 82    
Minimum Humidity 43    
Precipitation  
Precipitation 0.00 in 0.07 in - ()
Sea Level Pressure  
Sea Level Pressure 30.48 in    
Wind  
Wind Speed 7 mph ()    
Max Wind Speed 130 mph    
Max Gust Speed -    
Visibility 6.1 miles    
Events Rain    
Averages and records for this station are not official NWS values.
T = Trace of Precipitation, MM = Missing Value Source: Averaged Metar Reports

Daily Weather History Graph

Daily Weather History Graph

Search for Another Location

Airport or City:

Astronomy

Oct. 08, 2012 Rise Set
Actual Time 5:25 AM -05 5:44 PM -05
Civil Twilight 5:04 AM -05 6:06 PM -05
Nautical Twilight 4:39 AM -05 6:31 PM -05
Astronomical Twilight 4:14 AM -05 6:56 PM -05
Moon No Moon Rise 11:43 AM -05 (10/8)
Length of Visible Light 13h 01m
Length of Day
12h 18m
Last Quarter, 46% of the Moon is Illuminated
Oct 8
Last Quarter
Oct 15
New
Oct 21
First Quarter
Oct 29
Full
Nov 6
Last Quarter

Hourly Weather History & Observations

Time (-05) Temp. Dew Point Humidity Pressure Visibility Wind Dir Wind Speed Gust Speed Precip Events Conditions
12:00 AM 53.6 °F 39.2 °F 58% 30.48 in 6.2 mi Variable 1.2 mph - N/A   Scattered Clouds
1:00 AM 53 °F 39 °F 49%  in 6 mi ESE 3.5 mph - -   Partly Cloudy
1:00 AM 53.6 °F 39.2 °F 58% 30.45 in 6.2 mi ESE 3.5 mph - N/A   Scattered Clouds
2:00 AM 53.6 °F 39.2 °F 58% 30.45 in 6.2 mi Variable 2.3 mph - N/A   Scattered Clouds
3:00 AM 53.6 °F 39.2 °F 58% 30.45 in 6.2 mi Calm Calm - N/A   Mostly Cloudy
4:00 AM 49 °F 42 °F 67%  in 6 mi WNW 5.8 mph - -   Partly Cloudy
4:00 AM 50.0 °F 41.0 °F 71% 30.45 in 6.2 mi WNW 5.8 mph - N/A   Mostly Cloudy
5:00 AM 51.8 °F 41.0 °F 67% 30.45 in 6.2 mi WNW 6.9 mph - N/A   Mostly Cloudy
5:30 AM 51.8 °F 41.0 °F 67% 30.48 in 6.2 mi WNW 5.8 mph - N/A   Overcast
6:00 AM 51.8 °F 41.0 °F 67% 30.48 in 6.2 mi West 4.6 mph - N/A   Overcast
6:30 AM 51.8 °F 39.2 °F 62% 30.51 in 6.2 mi WNW 10.4 mph - N/A   Mostly Cloudy
7:00 AM 51.8 °F 39.2 °F 62% 30.51 in 6.2 mi WNW 11.5 mph - N/A   Overcast
7:30 AM 51.8 °F 39.2 °F 62% 30.54 in 6.2 mi WNW 9.2 mph - N/A   Overcast
8:00 AM 55.4 °F 41.0 °F 58% 30.54 in 6.2 mi WNW 8.1 mph - N/A   Mostly Cloudy
8:30 AM 57.2 °F 39.2 °F 51% 30.54 in 6.2 mi Variable 4.6 mph - N/A   Mostly Cloudy
9:00 AM 55.4 °F 39.2 °F 54% 30.54 in 6.2 mi WNW 6.9 mph - N/A   Mostly Cloudy
9:07 AM 55.4 °F 41.0 °F 58% 30.54 in 5.0 mi SW 8.1 mph - N/A Rain Rain
10:00 AM 57.2 °F 41.0 °F 55% 30.54 in 6.2 mi ESE 4.6 mph - N/A Rain Light Rain
10:30 AM 55.4 °F 44.6 °F 67% 30.54 in 6.2 mi ENE 5.8 mph - N/A   Mostly Cloudy
11:00 AM 57.2 °F 41.0 °F 55% 30.51 in 6.2 mi East 5.8 mph - N/A   Mostly Cloudy
11:30 AM 62.6 °F 42.8 °F 48% 30.48 in 6.2 mi Variable 2.3 mph - N/A   Mostly Cloudy
12:00 PM 57.2 °F 41.0 °F 55% 30.48 in 6.2 mi WNW 11.5 mph - N/A Rain Light Rain
12:30 PM 60.8 °F 41.0 °F 48% - 6.2 mi WNW 11.5 mph - N/A   Scattered Clouds
1:00 PM 60 °F 43 °F 43%  in 6 mi SSW 11.5 mph - -   Overcast
1:00 PM 60.8 °F 42.8 °F 52% 30.45 in 6.2 mi SSW 11.5 mph - N/A   Mostly Cloudy
1:30 PM 60.8 °F 42.8 °F 52% 30.45 in 6.2 mi WNW 130.0 mph - N/A   Scattered Clouds
2:00 PM 55.4 °F 44.6 °F 67% 30.45 in 6.2 mi ESE 11.5 mph - N/A   Mostly Cloudy
2:30 PM 55.4 °F 42.8 °F 63% 30.42 in 6.2 mi ESE 11.5 mph - N/A   Mostly Cloudy
3:00 PM 55.4 °F 44.6 °F 67% 30.42 in 6.2 mi East 10.4 mph - N/A   Mostly Cloudy
3:30 PM 60.8 °F 44.6 °F 55% 30.54 in 6.2 mi ESE 8.1 mph - N/A   Mostly Cloudy
4:00 PM 60.8 °F 44.6 °F 55% 30.39 in 6.2 mi ESE 11.5 mph - N/A   Mostly Cloudy
4:30 PM 57.2 °F 42.8 °F 59% 30.42 in 6.2 mi ESE 13.8 mph - N/A   Mostly Cloudy
5:00 PM 55.4 °F 44.6 °F 67% 30.42 in 6.2 mi ESE 16.1 mph - N/A   Mostly Cloudy
5:30 PM 53.6 °F 42.8 °F 67% 30.42 in 6.2 mi ESE 12.7 mph - N/A   Mostly Cloudy
6:00 PM 53.6 °F 42.8 °F 67% 30.42 in 6.2 mi ESE 11.5 mph - N/A   Scattered Clouds
7:00 PM 52 °F 42 °F 60%  in 6 mi ESE 4.6 mph - -   Partly Cloudy
7:00 PM 51.8 °F 42.8 °F 71% 30.45 in 6.2 mi ESE 5.8 mph - N/A   Scattered Clouds
8:00 PM 50.0 °F 41.0 °F 71% 30.48 in 6.2 mi Calm Calm - N/A   Partly Cloudy
9:00 PM 48.2 °F 42.8 °F 82% 30.51 in 6.2 mi Calm Calm - N/A   Partly Cloudy
10:00 PM 48 °F 42 °F 74%  in 6 mi Calm Calm - -   Partly Cloudy
10:00 PM 48.2 °F 42.8 °F 82% 30.51 in 6.2 mi Calm Calm - N/A   Partly Cloudy
11:00 PM 48.2 °F 41.0 °F 76% 30.51 in 6.2 mi Calm Calm - N/A   Scattered Clouds